Wooster, OH

1:31 PM EST on December 14, 2019 (GMT -0500)
Wayne County

Weather History for KBJJ - October, 2019

Change the Weather History Date:

Tuesday, October 8, 2019

  Actual Average Record
Temperature  
Mean Temperature 52 °F -  
Max Temperature 66 °F 64 °F 90 °F (2007)
Min Temperature 39 °F 39 °F 25 °F (2003)
Degree Days  
Heating Degree Days 12    
Growing Degree Days 2 (Base 50)    
Moisture  
Dew Point 44 °F    
Average Humidity 86    
Maximum Humidity 100    
Minimum Humidity 45    
Precipitation  
Precipitation 0.00 in - - ()
Sea Level Pressure  
Sea Level Pressure 30.26 in    
Wind  
Wind Speed 1 mph (East)    
Max Wind Speed 13 mph    
Max Gust Speed 17 mph    
Visibility 5 miles    
Events Fog    
Averages and records for this station are not official NWS values.
T = Trace of Precipitation, MM = Missing Value Source: NWS Daily Summary

Daily Weather History Graph

Daily Weather History Graph

Search for Another Location

Airport or City:

Astronomy

Oct. 08, 2019 Rise Set
Actual Time 7:31 AM EDT 6:58 PM EDT
Civil Twilight 7:03 AM EDT 7:25 PM EDT
Nautical Twilight 6:31 AM EDT 7:57 PM EDT
Astronomical Twilight 6:00 AM EDT 8:29 PM EDT
Moon 4:59 PM EDT (10/8) 2:16 AM EDT (10/8)
Length of Visible Light 12h 22m
Length of Day
11h 27m
Waxing Gibbous, 77% of the Moon is Illuminated
Oct 8
Waxing Gibbous
Oct 13
Full
Oct 21
Last Quarter
Oct 27
New
Nov 4
First Quarter

Hourly Weather History & Observations

Time (EDT) Temp. Windchill Dew Point Humidity Pressure Visibility Wind Dir Wind Speed Gust Speed Precip Events Conditions
12:37 AM 45.0 °F - 44.1 °F 97% 30.25 in 1.2 mi Calm Calm - N/A   Overcast
12:43 AM 44.1 °F - 44.1 °F 100% 30.25 in 0.8 mi Calm Calm - N/A   Mist
12:56 AM 44.1 °F - 44.1 °F 100% 30.25 in 0.5 mi Calm Calm - N/A Fog Fog
1:30 AM 44.1 °F - 43.0 °F 96% 30.24 in 1.2 mi Calm Calm - N/A   Mostly Cloudy
1:41 AM 44.1 °F - 43.0 °F 96% 30.24 in 0.8 mi Calm Calm - N/A   Mist
1:56 AM 44.1 °F - 44.1 °F 100% 30.25 in 0.5 mi Calm Calm - N/A Fog Fog
2:56 AM 44.1 °F - 43.0 °F 96% 30.25 in 0.5 mi Calm Calm - N/A Fog Fog
3:18 AM 45.0 °F 43.5 °F 44.1 °F 97% 30.24 in 0.2 mi SE 3.5 mph - N/A Fog Fog
3:56 AM 45.0 °F - 45.0 °F 100% 30.25 in 0.2 mi Calm Calm - N/A Fog Fog
4:28 AM 43.0 °F - 42.1 °F 97% 30.24 in 0.8 mi Calm Calm - N/A   Mist
4:56 AM 42.1 °F - 42.1 °F 100% 30.26 in 0.5 mi Calm Calm - N/A Fog Fog
5:02 AM 42.1 °F - 41.0 °F 96% 30.25 in 1.2 mi Calm Calm - N/A   Mostly Cloudy
5:05 AM 42.1 °F - 41.0 °F 96% 30.25 in 3.0 mi Calm Calm - N/A   Mostly Cloudy
5:13 AM 42.1 °F - 41.0 °F 96% 30.25 in 4.0 mi Calm Calm - N/A   Scattered Clouds
5:21 AM 41.0 °F - 41.0 °F 100% 30.25 in 1.8 mi Calm Calm - N/A   Partly Cloudy
5:38 AM 41.0 °F - 39.9 °F 96% 30.26 in 3.0 mi Calm Calm - N/A   Clear
6:12 AM 41.0 °F - 39.9 °F 96% 30.26 in 2.5 mi Calm Calm - N/A   Clear
6:30 AM 39.9 °F - 39.9 °F 100% 30.27 in 1.8 mi Calm Calm - N/A   Clear
6:47 AM 39.9 °F - 39.9 °F 100% 30.27 in 1.0 mi Calm Calm - N/A   Clear
6:56 AM 39.9 °F - 39.9 °F 100% 30.29 in 1.5 mi Calm Calm - N/A   Clear
7:17 AM 39.9 °F - 39.0 °F 97% 30.27 in 2.5 mi Calm Calm - N/A   Clear
7:24 AM 39.0 °F - 39.0 °F 100% 30.28 in 5.0 mi Calm Calm - N/A   Clear
7:56 AM 39.9 °F - 39.0 °F 97% 30.30 in 9.0 mi Calm Calm - N/A   Clear
8:56 AM 46.0 °F - 46.0 °F 100% 30.30 in 10.0 mi Calm Calm - N/A   Clear
9:56 AM 54.0 °F - 50.0 °F 86% 30.31 in 10.0 mi SE 3.5 mph - N/A   Clear
10:56 AM 60.1 °F - 51.1 °F 72% 30.30 in 10.0 mi SE 6.9 mph - N/A   Clear
11:56 AM 63.0 °F - 46.9 °F 56% 30.30 in 10.0 mi Variable 6.9 mph - N/A   Clear
12:56 PM 64.0 °F - 45.0 °F 50% 30.29 in 10.0 mi Variable 6.9 mph - N/A   Clear
1:56 PM 66.0 °F - 44.1 °F 45% 30.26 in 10.0 mi NE 9.2 mph 17.3 mph N/A   Clear
2:56 PM 66.0 °F - 45.0 °F 47% 30.24 in 10.0 mi ESE 8.1 mph - N/A   Clear
3:56 PM 66.0 °F - 45.0 °F 47% 30.23 in 10.0 mi East 12.7 mph - N/A   Clear
4:56 PM 66.0 °F - 46.0 °F 48% 30.23 in 10.0 mi ENE 12.7 mph - N/A   Clear
5:56 PM 64.0 °F - 46.0 °F 52% 30.23 in 10.0 mi East 9.2 mph - N/A   Clear
6:56 PM 59.0 °F - 46.9 °F 64% 30.23 in 10.0 mi ENE 4.6 mph - N/A   Clear
7:56 PM 55.0 °F - 46.9 °F 74% 30.24 in 10.0 mi ENE 5.8 mph - N/A   Clear
8:56 PM 53.1 °F - 46.9 °F 80% 30.25 in 10.0 mi NNE 4.6 mph - N/A   Clear
9:56 PM 48.0 °F - 46.0 °F 93% 30.25 in 10.0 mi NNE 3.5 mph - N/A   Clear
10:56 PM 46.9 °F - 45.0 °F 93% 30.25 in 10.0 mi Calm Calm - N/A   Clear
11:56 PM 45.0 °F - 43.0 °F 93% 30.24 in 9.0 mi Calm Calm - N/A   Clear